Location: Ferma
(41.9500°N, 44.5167°E)
Time: 19:52:43
(UTC+00:00)

Cosmos 1140 Rocket - Pass Details

Date: 24 October 2021
Orbit: 743 x 768 km, 74.1° (Epoch: 02 December)

Event Time Altitude Azimuth Distance (km) Brightness Sun altitude
Rises 16:34:20 0° 340° (NNW) 3,219 7.1 -28.0°
Reaches altitude 10° 16:36:42 10° 340° (NNW) 2,293 6.3 -28.5°
Enters shadow 16:40:34 51° 339° (NNW) 953 4.0 -29.2°
